Weather History for Blue Canyon, CA

Change the Weather History Date:

Monday, November 19, 2012

  Actual Average Record
Temperature  
Mean Temperature 38 °F -  
Max Temperature 43 °F 48 °F 70 °F (1976)
Min Temperature 33 °F 34 °F 17 °F (1977)
Degree Days  
Heating Degree Days 27    
Moisture  
Dew Point 38 °F    
Average Humidity 93    
Maximum Humidity 100    
Minimum Humidity 76    
Precipitation  
Precipitation 0.05 in - - ()
Sea Level Pressure  
Sea Level Pressure 30.23 in    
Wind  
Wind Speed 8 mph (SSE)    
Max Wind Speed 16 mph    
Max Gust Speed 26 mph    
Visibility 5 miles    
Events Fog , Rain , Snow    
Averages and records for this station are not official NWS values.
T = Trace of Precipitation, MM = Missing Value Source: NWS Daily Summary

Daily Weather History Graph

Daily Weather History Graph

Search for Another Location

Airport:

Trip Planner

Search our weather history database for the weather conditions in past years. The results will help you decide how hot, cold, wet, or windy it might be!

Date:

Astronomy

Nov. 19, 2012 Rise Set
Actual Time 6:51 AM PST 4:44 PM PST
Civil Twilight 6:22 AM PST 5:13 PM PST
Nautical Twilight 5:49 AM PST 5:46 PM PST
Astronomical Twilight 5:17 AM PST 6:18 PM PST
Moon 11:58 AM PST (11/19) 11:16 PM PST (11/19)
Length of Visible Light 10h 51m
Length of Day
9h 53m
Waxing Crescent, 42% of the Moon is Illuminated
Nov 19
Waxing Crescent
Nov 20
First Quarter
Nov 28
Full
Dec 6
Last Quarter
Dec 13
New

Hourly Weather History & Observations

Time (PST) Temp. Windchill Dew Point Humidity Pressure Visibility Wind Dir Wind Speed Gust Speed Precip Events Conditions
12:52 AM 35.1 °F 32.2 °F 30.0 °F 82% 30.19 in 10.0 mi ESE 3.5 mph - N/A   Overcast
1:33 AM 35.6 °F 28.6 °F 30.2 °F 81% 30.19 in 8.0 mi South 9.2 mph - 0.00 in Snow Light Snow
1:52 AM 35.1 °F 28.6 °F 30.9 °F 85% 30.20 in 3.0 mi SSE 8.1 mph - 0.00 in Snow Light Snow
2:07 AM 33.8 °F 28.6 °F 32.0 °F 93% 30.19 in 3.0 mi SSE 5.8 mph - 0.01 in Snow Light Snow
2:16 AM 33.8 °F 27.7 °F 32.0 °F 93% 30.19 in 5.0 mi SE 6.9 mph - 0.01 in Snow Light Snow
2:31 AM 33.8 °F 28.6 °F 32.0 °F 93% 30.20 in 3.0 mi SSE 5.8 mph - 0.01 in Snow Light Snow
2:43 AM 33.8 °F 29.6 °F 32.0 °F 93% 30.19 in 2.5 mi SE 4.6 mph - 0.01 in Snow Light Snow
2:52 AM 34.0 °F 31.0 °F 32.0 °F 92% 30.20 in 2.5 mi ESE 3.5 mph - 0.02 in Snow Light Snow
3:07 AM 33.8 °F - 33.8 °F 100% 30.19 in 3.0 mi Calm Calm - 0.01 in Snow Light Snow
3:17 AM 33.8 °F - 33.8 °F 100% 30.19 in 4.0 mi Calm Calm - 0.02 in Rain Light Rain
3:38 AM 35.6 °F 29.2 °F 33.8 °F 93% 30.19 in 1.8 mi SSE 8.1 mph - 0.02 in Rain Light Rain
3:47 AM 35.6 °F 28.6 °F 33.8 °F 93% 30.19 in 1.2 mi SSE 9.2 mph - 0.03 in   Overcast
3:52 AM 36.0 °F 31.1 °F 35.1 °F 97% 30.19 in 2.5 mi SSE 5.8 mph - 0.03 in   Overcast
3:54 AM 35.6 °F 29.9 °F 35.6 °F 100% 30.19 in 4.0 mi SSE 6.9 mph - 0.00 in   Overcast
4:05 AM 35.6 °F 29.2 °F 35.6 °F 100% 30.19 in 10.0 mi South 8.1 mph - 0.00 in   Overcast
4:13 AM 35.6 °F 29.2 °F 35.6 °F 100% 30.20 in 10.0 mi South 8.1 mph - 0.00 in   Overcast
4:23 AM 35.6 °F 30.7 °F 33.8 °F 93% 30.20 in 10.0 mi SSE 5.8 mph - 0.00 in   Overcast
4:52 AM 36.0 °F 32.1 °F 32.0 °F 86% 30.19 in 10.0 mi SE 4.6 mph - 0.00 in   Overcast
4:59 AM 35.6 °F 31.7 °F 33.8 °F 93% 30.20 in 10.0 mi SE 4.6 mph - N/A   Overcast
5:52 AM 36.0 °F 32.1 °F 34.0 °F 93% 30.22 in 10.0 mi SE 4.6 mph - N/A   Overcast
6:23 AM 37.4 °F 32.1 °F 33.8 °F 87% 30.21 in 10.0 mi SSE 6.9 mph - N/A   Overcast
6:30 AM 37.4 °F 32.8 °F 35.6 °F 93% 30.21 in 10.0 mi SE 5.8 mph - N/A   Overcast
6:52 AM 37.9 °F 32.7 °F 36.0 °F 93% 30.21 in 10.0 mi SSE 6.9 mph - N/A   Overcast
7:52 AM 39.0 °F 34.8 °F 37.9 °F 96% 30.24 in 7.0 mi SSE 5.8 mph - N/A   Overcast
8:52 AM 39.9 °F 33.9 °F 37.9 °F 93% 30.24 in 10.0 mi SSE 9.2 mph - N/A   Overcast
9:48 AM 41.0 °F 34.3 °F 39.2 °F 93% 30.26 in 5.0 mi South 11.5 mph 19.6 mph N/A   Overcast
9:52 AM 41.0 °F 34.3 °F 39.0 °F 93% 30.25 in 5.0 mi South 11.5 mph - N/A   Overcast
10:23 AM 41.0 °F 33.9 °F 39.2 °F 93% 30.26 in 0.8 mi South 12.7 mph 26.5 mph N/A   Overcast
10:27 AM 41.0 °F 33.9 °F 39.2 °F 93% 30.26 in 0.2 mi South 12.7 mph 26.5 mph N/A Fog Fog
10:40 AM 41.0 °F 33.9 °F 39.2 °F 93% 30.27 in 1.2 mi SSE 12.7 mph 19.6 mph N/A   Overcast
10:42 AM 41.0 °F 34.7 °F 39.2 °F 93% 30.27 in 2.5 mi SSE 10.4 mph 19.6 mph N/A   Overcast
10:49 AM 41.0 °F 34.7 °F 39.2 °F 93% 30.27 in 6.0 mi SSE 10.4 mph 20.7 mph N/A   Overcast
10:52 AM 41.0 °F 32.8 °F 39.9 °F 96% 30.25 in 6.0 mi South 16.1 mph 20.7 mph N/A   Overcast
11:03 AM 41.0 °F 33.5 °F 39.2 °F 93% 30.27 in 1.8 mi South 13.8 mph 23.0 mph N/A   Overcast
11:10 AM 41.0 °F 33.5 °F 39.2 °F 93% 30.27 in 1.2 mi SSE 13.8 mph - N/A   Overcast
11:13 AM 41.0 °F 34.3 °F 39.2 °F 93% 30.27 in 2.0 mi SSE 11.5 mph 20.7 mph N/A   Overcast
11:16 AM 41.0 °F 33.5 °F 39.2 °F 93% 30.27 in 1.2 mi South 13.8 mph 19.6 mph N/A   Overcast
11:22 AM 41.0 °F 34.3 °F 39.2 °F 93% 30.26 in 0.2 mi SSE 11.5 mph 19.6 mph N/A Fog Fog
11:35 AM 41.0 °F 33.5 °F 39.2 °F 93% 30.27 in 0.5 mi South 13.8 mph 23.0 mph N/A Fog Fog
11:40 AM 41.0 °F 34.7 °F 39.2 °F 93% 30.26 in 0.2 mi South 10.4 mph - N/A Fog Fog
11:48 AM 41.0 °F 33.5 °F 39.2 °F 93% 30.26 in 0.5 mi South 13.8 mph 19.6 mph N/A Fog Fog
11:52 AM 41.0 °F 33.1 °F 39.9 °F 96% 30.25 in 0.8 mi South 15.0 mph - N/A   Mist
11:58 AM 41.0 °F 34.7 °F 39.2 °F 93% 30.26 in 0.2 mi South 10.4 mph - N/A Fog Fog
12:38 PM 41.0 °F 34.7 °F 39.2 °F 93% 30.25 in 0.5 mi South 10.4 mph - N/A Fog Fog
12:44 PM 41.0 °F 35.8 °F 39.2 °F 93% 30.25 in 0.2 mi South 8.1 mph 16.1 mph N/A Fog Fog
12:52 PM 41.0 °F 33.5 °F 41.0 °F 100% 30.23 in 0.2 mi South 13.8 mph 19.6 mph N/A Fog Fog
1:24 PM 41.0 °F 33.1 °F 41.0 °F 100% 30.24 in 1.0 mi South 15.0 mph 18.4 mph N/A   Mist
1:28 PM 41.0 °F 33.5 °F 39.2 °F 93% 30.24 in 1.5 mi South 13.8 mph 21.9 mph N/A   Overcast
1:37 PM 41.0 °F 33.5 °F 41.0 °F 100% 30.24 in 4.0 mi South 13.8 mph 23.0 mph N/A   Overcast
1:52 PM 42.1 °F 34.9 °F 41.0 °F 96% 30.21 in 10.0 mi South 13.8 mph 18.4 mph N/A   Overcast
2:02 PM 42.8 °F 37.0 °F 39.2 °F 87% 30.24 in 10.0 mi South 10.4 mph - N/A   Overcast
2:52 PM 43.0 °F 38.2 °F 41.0 °F 93% 30.21 in 10.0 mi South 8.1 mph 16.1 mph N/A   Overcast
3:52 PM 42.1 °F 37.1 °F 41.0 °F 96% 30.22 in 10.0 mi South 8.1 mph - N/A   Overcast
3:59 PM 42.8 °F 38.0 °F 39.2 °F 87% 30.24 in 8.0 mi South 8.1 mph - N/A   Overcast
4:25 PM 41.0 °F 35.2 °F 41.0 °F 100% 30.25 in 1.5 mi South 9.2 mph - N/A   Overcast
4:29 PM 41.0 °F 35.8 °F 41.0 °F 100% 30.25 in 0.8 mi South 8.1 mph - N/A   Overcast
4:41 PM 41.0 °F 35.8 °F 41.0 °F 100% 30.24 in 0.2 mi SSE 8.1 mph - N/A Fog Fog
4:52 PM 41.0 °F 35.2 °F 41.0 °F 100% 30.21 in 0.5 mi SSE 9.2 mph - N/A Fog Fog
4:57 PM 41.0 °F 33.9 °F 39.2 °F 93% 30.24 in 1.5 mi SSE 12.7 mph - N/A   Overcast
5:06 PM 41.0 °F 35.8 °F 39.2 °F 93% 30.24 in 5.0 mi SSE 8.1 mph - N/A   Overcast
5:11 PM 41.0 °F 36.4 °F 39.2 °F 93% 30.24 in 2.5 mi SSE 6.9 mph 16.1 mph N/A   Overcast
5:14 PM 41.0 °F 35.8 °F 41.0 °F 100% 30.24 in 1.2 mi South 8.1 mph - N/A   Overcast
5:49 PM 41.0 °F 34.3 °F 39.2 °F 93% 30.25 in 0.8 mi South 11.5 mph - N/A   Mist
5:52 PM 41.0 °F 35.8 °F 39.9 °F 96% 30.23 in 0.8 mi SSE 8.1 mph 16.1 mph N/A   Mist
6:05 PM 41.0 °F 36.4 °F 39.2 °F 93% 30.25 in 1.5 mi Variable 6.9 mph - N/A   Overcast
6:17 PM 41.0 °F 35.8 °F 39.2 °F 93% 30.25 in 2.5 mi SSE 8.1 mph - N/A   Overcast
6:25 PM 41.0 °F 37.1 °F 39.2 °F 93% 30.25 in 6.0 mi SSE 5.8 mph - N/A   Overcast
6:52 PM 39.9 °F 36.7 °F 39.9 °F 100% 30.23 in 9.0 mi SSE 4.6 mph - N/A   Overcast
7:02 PM 41.0 °F 37.1 °F 39.2 °F 93% 30.25 in 10.0 mi SE 5.8 mph - N/A   Overcast
7:29 PM 41.0 °F 37.1 °F 39.2 °F 93% 30.25 in 10.0 mi SSE 5.8 mph - N/A   Mostly Cloudy
7:52 PM 39.9 °F 35.8 °F 39.0 °F 97% 30.22 in 10.0 mi SE 5.8 mph - N/A   Overcast
8:01 PM 41.0 °F 38.0 °F 39.2 °F 93% 30.25 in 10.0 mi SE 4.6 mph - N/A   Overcast
8:20 PM 41.0 °F 35.8 °F 39.2 °F 93% 30.25 in 10.0 mi SE 8.1 mph - N/A   Overcast
8:52 PM 41.0 °F 37.1 °F 39.0 °F 93% 30.20 in 10.0 mi SE 5.8 mph - N/A   Scattered Clouds
9:52 PM 42.1 °F 37.7 °F 37.9 °F 85% 30.17 in 10.0 mi SE 6.9 mph - N/A   Clear
10:52 PM 43.0 °F 36.8 °F 36.0 °F 76% 30.17 in 10.0 mi SSE 11.5 mph 18.4 mph N/A   Mostly Cloudy
11:52 PM 41.0 °F 35.8 °F 37.0 °F 86% 30.18 in 10.0 mi SSE 8.1 mph - N/A   Partly Cloudy